FW3806 Weather Reports


Display with metric or nautical units.
time (UTC)temp
F
wind
direction
speed
MPH
gust
MPH
rain 1hr
in
rain 24hr
in
rain mn
in
humidity
%
barometer
mb
20260905151513 77 96 3.0 7.0 0.00 0.00 0.00 26 1010.6
20260905150012 76 85 0.0 6.0 0.00 0.00 0.00 27 1010.5
20260905144513 75 102 1.0 8.0 0.00 0.00 0.00 28 1010.4
20260905143009 75 106 0.0 8.0 0.00 0.00 0.00 29 1010.2
20260905141507 74 126 3.0 8.0 0.00 0.00 0.00 30 1009.9
20260905140006 72 105 5.0 7.0 0.00 0.00 0.00 31 1009.9
20260905134504 72 96 4.0 6.0 0.00 0.00 0.00 32 1009.4
20260905133101 71 112 0.0 1.0 0.00 0.00 0.00 32 1009.2
20260905131605 71 83 3.0 5.0 0.00 0.00 0.00 32 1009.0
20260905130059 70 122 0.0 1.0 0.00 0.00 0.00 33 1009.0
20260905124557 70 121 0.0 0.0 0.00 0.00 0.00 33 1008.9
20260905123053 72 121 0.0 1.0 0.00 0.00 0.00 31 1008.8
20260905121555 73 140 0.0 2.0 0.00 0.00 0.00 30 1008.9
20260905120110 73 122 0.0 1.0 0.00 0.00 0.00 30 1008.8
20260905114552 73 94 0.0 1.0 0.00 0.00 0.00 30 1008.8
20260905113051 73 92 0.0 0.0 0.00 0.00 0.00 29 1008.7
20260905111607 74 70 0.0 1.0 0.00 0.00 0.00 28 1008.7
20260905110056 74 84 0.0 1.0 0.00 0.00 0.00 28 1008.7
20260905104549 73 84 0.0 0.0 0.00 0.00 0.00 29 1008.7
20260905103050 73 60 0.0 0.0 0.00 0.00 0.00 28 1008.4
20260905101543 74 60 0.0 0.0 0.00 0.00 0.00 26 1008.2
20260905100046 75 85 0.0 1.0 0.00 0.00 0.00 24 1008.3
20260905094541 76 55 0.0 2.0 0.00 0.00 0.00 22 1008.2
20260905093040 76 91 0.0 1.0 0.00 0.00 0.00 22 1008.1
20260905091612 76 77 1.0 6.0 0.00 0.00 0.00 21 1008.0
20260905090039 76 76 0.0 1.0 0.00 0.00 0.00 20 1008.1
20260905084539 76 86 2.0 7.0 0.00 0.00 0.00 20 1008.0
20260905083036 75 124 0.0 0.0 0.00 0.00 0.00 21 1007.9
20260905081533 75 108 0.0 0.0 0.00 0.00 0.00 22 1007.9
20260905080037 76 85 0.0 0.0 0.00 0.00 0.00 22 1007.8
20260905074527 77 85 0.0 0.0 0.00 0.00 0.00 20 1007.7
20260905073026 78 85 0.0 0.0 0.00 0.00 0.00 19 1007.7
20260905071525 79 112 0.0 1.0 0.00 0.00 0.00 19 1007.6
20260905070026 78 77 0.0 1.0 0.00 0.00 0.00 20 1007.5
20260905064521 77 26 0.0 0.0 0.00 0.00 0.00 21 1007.3
20260905063021 76 210 0.0 0.0 0.00 0.00 0.00 23 1007.1
20260905061520 76 210 0.0 0.0 0.00 0.00 0.00 23 1007.1
20260905060020 76 210 0.0 0.0 0.00 0.00 0.00 22 1007.0
20260905054519 77 134 0.0 0.0 0.00 0.00 0.00 21 1006.9
20260905053020 77 135 0.0 0.0 0.00 0.00 0.00 22 1006.9
20260905051517 77 134 0.0 0.0 0.00 0.00 0.00 21 1006.9
20260905050022 78 135 0.0 0.0 0.00 0.00 0.00 22 1006.8
20260905044517 79 135 0.0 0.0 0.00 0.00 0.00 21 1006.7
20260905043022 81 135 0.0 0.0 0.00 0.00 0.00 19 1006.7
20260905041514 82 134 0.0 0.0 0.00 0.00 0.00 18 1006.6
20260905040014 84 135 0.0 0.0 0.00 0.00 0.00 16 1006.4
20260905034516 85 132 0.0 1.0 0.00 0.00 0.00 16 1006.4
20260905033015 86 193 0.0 1.0 0.00 0.00 0.00 15 1006.2
20260905031512 86 163 0.0 7.0 0.00 0.00 0.00 15 1005.9
20260905030017 87 220 1.0 11.0 0.00 0.00 0.00 15 1005.8
20260905024510 87 205 1.0 8.0 0.00 0.00 0.00 15 1005.6
20260905023010 87 217 0.0 10.0 0.00 0.00 0.00 14 1005.3
20260905021509 88 205 0.0 9.0 0.00 0.00 0.00 14 1005.2
20260905020009 89 158 2.0 10.0 0.00 0.00 0.00 13 1005.3
20260905014508 91 223 5.0 12.0 0.00 0.00 0.00 12 1005.2
20260905013109 92 202 4.0 14.0 0.00 0.00 0.00 12 1005.2
20260905011505 92 248 2.0 12.0 0.00 0.00 0.00 12 1005.1
20260905010004 93 200 5.0 13.0 0.00 0.00 0.00 11 1005.0
20260905004505 94 232 3.0 10.0 0.00 0.00 0.00 11 1005.1
20260905003005 93 161 7.0 13.0 0.00 0.00 0.00 11 1005.0
20260905001511 94 154 1.0 13.0 0.00 0.00 0.00 10 1005.1
20260905000002 94 237 4.0 13.0 0.00 0.00 0.00 10 1005.1
20260904234503 94 158 7.0 14.0 0.00 0.00 0.00 10 1005.2
20260904233005 95 221 9.0 14.0 0.00 0.00 0.00 11 1005.1
20260904231607 94 183 8.0 16.0 0.00 0.00 0.00 11 1005.1
20260904231501 94 174 6.0 16.0 0.00 0.00 0.00 11 1005.2
20260904230109 95 200 8.0 13.0 0.00 0.00 0.00 11 1005.2
20260904224601 94 199 7.0 17.0 0.00 0.00 0.00 11 1005.5
20260904223129 93 200 8.0 14.0 0.00 0.00 0.00 12 1005.7
20260904221559 94 154 9.0 14.0 0.00 0.00 0.00 12 1005.8
20260904220055 94 161 2.0 9.0 0.00 0.00 0.00 13 1005.9
20260904214557 93 197 6.0 13.0 0.00 0.00 0.00 13 1006.1
20260904213054 93 171 7.0 14.0 0.00 0.00 0.00 13 1006.2
20260904211551 91 111 5.0 15.0 0.00 0.00 0.00 13 1006.4
20260904210150 91 172 6.0 19.0 0.00 0.00 0.00 14 1006.5
20260904204550 91 155 8.0 17.0 0.00 0.00 0.00 13 1006.6
20260904203059 92 211 8.0 16.0 0.00 0.00 0.00 13 1006.7
20260904201543 90 148 8.0 16.0 0.00 0.00 0.00 14 1006.8
20260904200043 90 207 10.0 16.0 0.00 0.00 0.00 14 1007.0
20260904194542 89 176 11.0 18.0 0.00 0.00 0.00 15 1007.1
20260904193040 88 133 9.0 21.0 0.00 0.00 0.00 16 1007.3
20260904191547 88 105 12.0 20.0 0.00 0.00 0.00 16 1007.6
20260904190036 88 155 11.0 21.0 0.00 0.00 0.00 16 1007.7
20260904184534 88 145 10.0 21.0 0.00 0.00 0.00 16 1007.8
20260904183033 87 152 13.0 23.0 0.00 0.00 0.00 16 1008.0
20260904181534 87 148 10.0 22.0 0.00 0.00 0.00 17 1008.0
20260904180030 86 176 11.0 21.0 0.00 0.00 0.00 17 1008.0
20260904174531 86 130 8.0 18.0 0.00 0.00 0.00 17 1007.9
20260904173045 85 134 8.0 16.0 0.00 0.00 0.00 19 1008.0
20260904171525 84 119 8.0 17.0 0.00 0.00 0.00 20 1007.9
20260904170022 83 156 9.0 16.0 0.00 0.00 0.00 21 1007.7
20260904164520 82 191 6.0 15.0 0.00 0.00 0.00 23 1007.7
20260904163019 81 113 10.0 15.0 0.00 0.00 0.00 24 1007.7
20260904161519 81 127 9.0 16.0 0.00 0.00 0.00 24 1007.7
20260904160018 80 165 7.0 14.0 0.00 0.00 0.00 26 1007.6
20260904154518 79 86 7.0 13.0 0.00 0.00 0.00 27 1007.7
20260904153017 78 124 7.0 17.0 0.00 0.00 0.00 28 1007.8